When you browse on this site, cookies collect data to enhance your experience and personalize the content and advertising you see.
Visit our Privacy Policy to learn more. By continuing to use the site, you agree to this use of cookies and data.
  • In Österreich
  • Länderverzeichnis
  • Für 7 Tage
  • Wassertemperatur
  • Wetterkarte
  • News
  • Widgets
  • user-avatar
    Anmelden

    Stündliche Wetter Franceville

    Heute, 23 Januar, Donnerstag

    Zeit Temperatur Niederschläge Wind Luftdruck Luftfeuchtigkeit
    00:00 +27°C° 0 mm 1 m/S 730 mmHg 79%
    01:00 +26°C° 0 mm 1 m/S 730 mmHg 82%
    02:00 +26°C° 0 mm 1 m/S 730 mmHg 83%
    03:00 +25°C° 0 mm 1 m/S 729 mmHg 84%
    04:00 +23°C° 0 mm 0 m/S 729 mmHg 85%
    05:00 +25°C° 0 mm 1 m/S 729 mmHg 84%
    06:00 +25°C° 0 mm 1 m/S 730 mmHg 84%
    07:00 +25°C° 0 mm 1 m/S 731 mmHg 83%
    08:00 +28°C° 0 mm 1 m/S 731 mmHg 73%
    09:00 +31°C° 0 mm 1 m/S 731 mmHg 62%
    10:00 +34°C° 0 mm 1 m/S 732 mmHg 52%
    11:00 +35°C° 0 mm 1 m/S 731 mmHg 46%
    12:00 +37°C° 0 mm 1 m/S 731 mmHg 39%
    13:00 +39°C° 0 mm 1 m/S 730 mmHg 33%
    14:00 +37°C° 0 mm 1 m/S 730 mmHg 35%
    15:00 +37°C° 0 mm 2 m/S 729 mmHg 36%
    16:00 +37°C° 0 mm 2 m/S 729 mmHg 38%
    17:00 +35°C° 0 mm 2 m/S 729 mmHg 45%
    18:00 +32°C° 0 mm 1 m/S 729 mmHg 53%
    19:00 +30°C° 0 mm 1 m/S 729 mmHg 60%
    20:00 +29°C° 0 mm 1 m/S 729 mmHg 64%
    21:00 +28°C° 0 mm 1 m/S 730 mmHg 67%
    22:00 +27°C° 0 mm 1 m/S 730 mmHg 71%
    23:00 +27°C° 0 mm 1 m/S 730 mmHg 74%

    Morgen, 24 Januar, Freitag

    Zeit Temperatur Niederschläge Wind Luftdruck Luftfeuchtigkeit
    00:00 +26°C° 0 mm 1 m/S 730 mmHg 76%
    01:00 +26°C° 0 mm 1 m/S 730 mmHg 79%
    02:00 +25°C° 0 mm 1 m/S 730 mmHg 80%
    03:00 +25°C° 0 mm 1 m/S 730 mmHg 82%
    04:00 +25°C° 0 mm 1 m/S 730 mmHg 83%
    05:00 +25°C° 0 mm 1 m/S 730 mmHg 83%
    06:00 +23°C° 0 mm 0 m/S 731 mmHg 83%
    07:00 +23°C° 0 mm 0 m/S 731 mmHg 83%
    08:00 +28°C° 0 mm 1 m/S 731 mmHg 73%
    09:00 +31°C° 0 mm 1 m/S 732 mmHg 62%
    10:00 +34°C° 0 mm 1 m/S 732 mmHg 52%
    11:00 +34°C° 0 mm 1 m/S 732 mmHg 49%
    12:00 +35°C° 0 mm 1 m/S 731 mmHg 46%
    13:00 +35°C° 0 mm 1 m/S 731 mmHg 43%
    14:00 +36°C° 0 mm 1 m/S 730 mmHg 42%
    15:00 +36°C° 0 mm 1 m/S 730 mmHg 40%
    16:00 +37°C° 0 mm 2 m/S 729 mmHg 39%
    17:00 +34°C° 0 mm 1 m/S 729 mmHg 45%
    18:00 +32°C° 0 mm 1 m/S 730 mmHg 51%
    19:00 +30°C° 0 mm 1 m/S 730 mmHg 57%
    20:00 +29°C° 0 mm 1 m/S 730 mmHg 61%
    21:00 +28°C° 0 mm 1 m/S 731 mmHg 66%
    22:00 +28°C° 0 mm 2 m/S 731 mmHg 70%
    23:00 +27°C° 0 mm 1 m/S 731 mmHg 73%

    übermorgen, 25 Januar, Samstag

    Zeit Temperatur Niederschläge Wind Luftdruck Luftfeuchtigkeit
    00:00 +26°C° 0 mm 1 m/S 731 mmHg 75%
    01:00 +26°C° 0 mm 1 m/S 731 mmHg 78%
    02:00 +26°C° 0 mm 1 m/S 731 mmHg 80%
    03:00 +25°C° 0 mm 1 m/S 730 mmHg 82%
    04:00 +25°C° 0 mm 1 m/S 730 mmHg 84%
    05:00 +25°C° 0 mm 1 m/S 731 mmHg 84%
    06:00 +23°C° 0 mm 0 m/S 731 mmHg 84%
    07:00 +23°C° 0 mm 0 m/S 732 mmHg 84%
    08:00 +28°C° 0 mm 1 m/S 732 mmHg 74%
    09:00 +30°C° 0 mm 1 m/S 732 mmHg 64%
    10:00 +34°C° 0 mm 2 m/S 732 mmHg 54%
    11:00 +35°C° 0 mm 1 m/S 732 mmHg 46%
    12:00 +39°C° 0 mm 1 m/S 731 mmHg 37%
    13:00 +39°C° 0 mm 0 m/S 731 mmHg 29%
    14:00 +37°C° 0 mm 0 m/S 730 mmHg 31%
    15:00 +39°C° 0 mm 1 m/S 729 mmHg 33%
    16:00 +36°C° 0 mm 1 m/S 729 mmHg 35%
    17:00 +34°C° 0 mm 1 m/S 729 mmHg 41%
    18:00 +33°C° 0 mm 1 m/S 729 mmHg 46%
    19:00 +31°C° 0 mm 1 m/S 730 mmHg 52%
    20:00 +30°C° 0.1 mm 1 m/S 730 mmHg 59%
    21:00 +29°C° 0.1 mm 1 m/S 731 mmHg 66%
    22:00 +28°C° 0.1 mm 1 m/S 731 mmHg 73%
    23:00 +27°C° 0 mm 1 m/S 731 mmHg 75%

    26 Januar, Sonntag

    Zeit Temperatur Niederschläge Wind Luftdruck Luftfeuchtigkeit
    00:00 +27°C° 0 mm 1 m/S 731 mmHg 77%
    01:00 +26°C° 0 mm 1 m/S 731 mmHg 79%
    02:00 +26°C° 0 mm 1 m/S 731 mmHg 81%
    03:00 +26°C° 0 mm 1 m/S 731 mmHg 83%
    04:00 +25°C° 0 mm 1 m/S 731 mmHg 84%
    05:00 +26°C° 0 mm 1 m/S 731 mmHg 84%
    06:00 +24°C° 0 mm 0 m/S 731 mmHg 84%
    07:00 +24°C° 0 mm 0 m/S 732 mmHg 84%
    08:00 +27°C° 0 mm 0 m/S 732 mmHg 73%
    09:00 +31°C° 0 mm 1 m/S 732 mmHg 61%
    10:00 +34°C° 0 mm 1 m/S 732 mmHg 50%
    11:00 +36°C° 0 mm 1 m/S 732 mmHg 43%
    12:00 +39°C° 0 mm 1 m/S 731 mmHg 37%
    13:00 +41°C° 0 mm 1 m/S 730 mmHg 30%
    14:00 +39°C° 0 mm 1 m/S 729 mmHg 33%
    15:00 +37°C° 0 mm 1 m/S 729 mmHg 37%
    16:00 +35°C° 0 mm 1 m/S 728 mmHg 40%
    17:00 +34°C° 0 mm 1 m/S 728 mmHg 45%
    18:00 +31°C° 0 mm 0 m/S 729 mmHg 51%
    19:00 +29°C° 0 mm 0 m/S 729 mmHg 56%
    20:00 +31°C° 0 mm 1 m/S 730 mmHg 59%
    21:00 +30°C° 0 mm 1 m/S 731 mmHg 62%
    22:00 +30°C° 0 mm 2 m/S 731 mmHg 65%
    23:00 +29°C° 0 mm 2 m/S 731 mmHg 68%

    27 Januar, Montag

    Zeit Temperatur Niederschläge Wind Luftdruck Luftfeuchtigkeit
    00:00 +28°C° 0 mm 1 m/S 731 mmHg 72%
    01:00 +27°C° 0 mm 1 m/S 731 mmHg 75%
    02:00 +27°C° 0 mm 1 m/S 731 mmHg 78%
    03:00 +26°C° 0 mm 1 m/S 731 mmHg 80%
    04:00 +26°C° 0 mm 1 m/S 730 mmHg 83%
    05:00 +26°C° 0 mm 1 m/S 731 mmHg 83%
    06:00 +24°C° 0 mm 0 m/S 731 mmHg 83%
    07:00 +24°C° 0 mm 0 m/S 731 mmHg 83%
    08:00 +28°C° 0 mm 1 m/S 732 mmHg 73%
    09:00 +31°C° 0 mm 1 m/S 732 mmHg 62%
    10:00 +33°C° 0 mm 1 m/S 732 mmHg 52%
    11:00 +35°C° 0 mm 1 m/S 732 mmHg 46%
    12:00 +37°C° 0 mm 1 m/S 731 mmHg 39%
    13:00 +40°C° 0 mm 1 m/S 731 mmHg 33%
    14:00 +39°C° 0 mm 1 m/S 730 mmHg 37%
    15:00 +36°C° 0 mm 1 m/S 729 mmHg 40%
    16:00 +35°C° 0 mm 1 m/S 729 mmHg 44%
    17:00 +34°C° 0.2 mm 2 m/S 729 mmHg 53%
    18:00 +31°C° 0.2 mm 2 m/S 729 mmHg 62%
    19:00 +29°C° 0.2 mm 2 m/S 730 mmHg 71%
    20:00 +28°C° 0.4 mm 1 m/S 730 mmHg 75%
    21:00 +27°C° 0.4 mm 1 m/S 731 mmHg 80%
    22:00 +27°C° 0.4 mm 1 m/S 731 mmHg 84%
    23:00 +26°C° 0.1 mm 1 m/S 731 mmHg 85%

    28 Januar, Dienstag

    Zeit Temperatur Niederschläge Wind Luftdruck Luftfeuchtigkeit
    00:00 +26°C° 0.1 mm 1 m/S 731 mmHg 85%
    01:00 +26°C° 0.1 mm 1 m/S 731 mmHg 86%
    02:00 +26°C° 0 mm 1 m/S 731 mmHg 87%
    03:00 +25°C° 0 mm 1 m/S 730 mmHg 88%
    04:00 +25°C° 0 mm 1 m/S 730 mmHg 89%
    05:00 +25°C° 0 mm 1 m/S 730 mmHg 89%
    06:00 +25°C° 0 mm 1 m/S 731 mmHg 88%
    07:00 +25°C° 0 mm 1 m/S 731 mmHg 88%
    08:00 +28°C° 0 mm 1 m/S 731 mmHg 76%
    09:00 +30°C° 0 mm 1 m/S 732 mmHg 64%
    10:00 +33°C° 0 mm 1 m/S 732 mmHg 52%
    11:00 +35°C° 0 mm 1 m/S 731 mmHg 45%
    12:00 +37°C° 0 mm 1 m/S 731 mmHg 39%
    13:00 +40°C° 0 mm 1 m/S 730 mmHg 32%
    14:00 +39°C° 0 mm 1 m/S 729 mmHg 32%
    15:00 +39°C° 0 mm 1 m/S 729 mmHg 32%
    16:00 +38°C° 0 mm 2 m/S 728 mmHg 32%
    17:00 +36°C° 0.1 mm 2 m/S 728 mmHg 41%
    18:00 +34°C° 0.1 mm 2 m/S 728 mmHg 51%
    19:00 +30°C° 0.1 mm 2 m/S 729 mmHg 60%
    20:00 +29°C° 0.6 mm 2 m/S 729 mmHg 68%
    21:00 +28°C° 0.6 mm 2 m/S 730 mmHg 76%
    22:00 +27°C° 0.6 mm 2 m/S 731 mmHg 84%
    23:00 +26°C° 0.4 mm 1 m/S 730 mmHg 86%
    Mehr zeigen